Location: Asheville, NC
(35.6000°N, 82.5500°W)
Time: 07:04:56
(UTC-05:00)

Vanguard 3 - Pass Details

Date: 18 February 2018
Orbit: 508 x 3264 km, 33.3° (Epoch: 19 February)

Event Time Altitude Azimuth Distance (km) Brightness Sun altitude
Rises 21:57:12 0° 268° (W) 2,908 10.7 -45.2°
Enters shadow 21:57:51 - 264° (W) 2,692 10.4 -45.3°
Reaches altitude 10° 21:59:33 10° 252° (WSW) 2,200 - -45.6°
Maximum altitude 22:03:34 24° 199° (SSW) 1,827 - -46.4°
Drops below altitude 10° 22:09:22 10° 150° (SSE) 3,278 - -47.5°
Sets 22:13:50 0° 138° (SE) 4,782 - -48.3°
